,,Stat6,,Stat2,,Stat8,,Stat9,,Stat10,,Wind1,,Wind1,
time,status,PA1M_AVG,status,PR1M_SUM,status,RH1M_AVG,status,SR1M_AVG,status,TA1M_AVG,status,W1dAve1m,status,W1sAve1m,
2006-04-03, 00:00:01,VALID,919.079,VALID,0,VALID,100,VALID,-0.0679233,VALID,20.8356,VALID,137,VALID,0.903963,
2006-04-03, 00:01:01,VALID,919.08,VALID,0,VALID,100,VALID,-0.152827,VALID,19.6613,VALID,139,VALID,1.08937,
2006-04-03, 00:02:00,VALID,919.094,VALID,0,VALID,100,VALID,-0.169808,VALID,20.2076,VALID,145,VALID,0.84737,
2006-04-03, 00:03:00,VALID,919.116,VALID,0,VALID,100,VALID,-0.0509425,VALID,19.9337,VALID,148,VALID,0.648438,
2006-04-03, 00:04:01,VALID,919.129,VALID,0,VALID,100,VALID,-0.0339617,VALID,19.8182,VALID,136,VALID,0.814135,
2006-04-03, 00:05:01,VALID,919.134,VALID,0,VALID,100,VALID,-0.0679233,VALID,20.813,VALID,119,VALID,0.871652,
2006-04-03, 00:06:01,VALID,919.145,VALID,0,VALID,100,VALID,-0.0679233,VALID,20.603,VALID,101,VALID,0.83559,
2006-04-03, 00:07:01,VALID,919.159,VALID,0,VALID,100,VALID,-0.118866,VALID,19.8759,VALID,73,VALID,0.72017,
2006-04-03, 00:08:01,VALID,919.148,VALID,0,VALID,100,VALID,-0.0509425,VALID,19.6069,VALID,61,VALID,0.818983,
2006-04-03, 00:09:00,VALID,919.142,VALID,0,VALID,100,VALID,-0.0849042,VALID,19.3655,VALID,58,VALID,0.912202,
2006-04-03, 00:10:01,VALID,919.139,VALID,0,VALID,100,VALID,-0.118866,VALID,19.9653,VALID,58,VALID,0.75465,
2006-04-03, 00:11:01,VALID,919.141,VALID,0,VALID,100,VALID,-0.0679233,VALID,20.475,VALID,58,VALID,0.633194,
2006-04-03, 00:12:01,VALID,919.119,VALID,0,VALID,100,VALID,-0.101885,VALID,19.4613,VALID,63,VALID,0.636905,
2006-04-03, 00:13:01,VALID,919.094,VALID,0,VALID,100,VALID,-0.0679233,VALID,19.4895,VALID,64,VALID,0.588715,
2006-04-03, 00:14:00,VALID,919.061,VALID,0,VALID,100,VALID,-0.0849042,VALID,20.7776,VALID,69,VALID,0.648074,
2006-04-03, 00:15:01,VALID,919.04,VALID,0,VALID,100,VALID,-0.101885,VALID,19.1041,VALID,97,VALID,0.668155,
2006-04-03, 00:16:01,VALID,919.011,VALID,0,VALID,100,VALID,-0.0679233,VALID,19.1442,VALID,97,VALID,0.651414,
2006-04-03, 00:17:01,VALID,918.992,VALID,0,VALID,100,VALID,-0.0679233,VALID,19.5287,VALID,91,VALID,0.534702,
2006-04-03, 00:18:01,VALID,918.964,VALID,0,VALID,100,VALID,-0.0849042,VALID,18.6512,VALID,86,VALID,0.713118,
2006-04-03, 00:19:01,VALID,918.949,VALID,0,VALID,100,VALID,-0.0509425,VALID,18.9364,VALID,86,VALID,0.51669,
2006-04-03, 00:20:01,VALID,918.937,VALID,0,VALID,100,VALID,-0.101885,VALID,21.0979,VALID,86,VALID,0.346726,
2006-04-03, 00:21:01,VALID,918.918,VALID,0,VALID,100,VALID,-0.101885,VALID,20.2439,VALID,86,VALID,0.417515,
2006-04-03, 00:22:01,VALID,918.897,VALID,0,VALID,100,VALID,-0.0849042,VALID,19.7167,VALID,86,VALID,0.414063,
2006-04-03, 00:23:01,VALID,918.878,VALID,0,VALID,100,VALID,-0.101885,VALID,20.0066,VALID,86,VALID,0.335565,
2006-04-03, 00:24:01,VALID,918.864,VALID,0,VALID,100,VALID,-0.0849042,VALID,20.2085,VALID,86,VALID,0.413336,
2006-04-03, 00:25:01,VALID,918.84,VALID,0,VALID,100,VALID,-0.0169808,VALID,19.4558,VALID,86,VALID,0.395312,
2006-04-03, 00:26:01,VALID,918.815,VALID,0,VALID,100,VALID,-0.0509425,VALID,19.6214,VALID,86,VALID,0.429688,
2006-04-03, 00:27:01,VALID,918.798,VALID,0,VALID,100,VALID,-0.101885,VALID,20.3534,VALID,86,VALID,0.419389,
2006-04-03, 00:28:01,VALID,918.754,VALID,0,VALID,100,VALID,-0.0849042,VALID,19.7494,VALID,86,VALID,0.435404,
2006-04-03, 00:29:01,VALID,918.739,VALID,0,VALID,100,VALID,-0.101885,VALID,19.0338,VALID,86,VALID,0.289864,
2006-04-03, 00:30:01,VALID,918.703,VALID,0,VALID,100,VALID,-0.152827,VALID,20.8409,VALID,86,VALID,0.356957,
2006-04-03, 00:31:01,VALID,918.688,VALID,0,VALID,100,VALID,-0.152827,VALID,19.5268,VALID,86,VALID,0.411044,
2006-04-03, 00:32:01,VALID,918.687,VALID,0,VALID,100,VALID,-0.152827,VALID,19.2222,VALID,86,VALID,0.523615,
2006-04-03, 00:33:01,VALID,918.673,VALID,0,VALID,100,VALID,-0.0509425,VALID,19.8086,VALID,87,VALID,0.662919,
2006-04-03, 00:34:01,VALID,918.679,VALID,0,VALID,100,VALID,-0.0679233,VALID,20.0303,VALID,91,VALID,0.843006,
2006-04-03, 00:35:01,VALID,918.666,VALID,0,VALID,100,VALID,-0.152827,VALID,19.4138,VALID,98,VALID,0.891183,
2006-04-03, 00:36:01,VALID,918.667,VALID,0,VALID,100,VALID,-0.0169808,VALID,19.43,VALID,100,VALID,0.886896,
2006-04-03, 00:37:00,VALID,918.668,VALID,0,VALID,100,VALID,-0.0849042,VALID,19.4299,VALID,100,VALID,0.878374,
2006-04-03, 00:38:00,VALID,918.649,VALID,0,VALID,100,VALID,-0.0849042,VALID,20.3773,VALID,100,VALID,0.833452,
2006-04-03, 00:39:00,VALID,918.643,VALID,0,VALID,100,VALID,-0.0849042,VALID,19.7394,VALID,100,VALID,0.808866,
2006-04-03, 00:40:00,VALID,918.623,VALID,0,VALID,100,VALID,-0.101885,VALID,19.6355,VALID,100,VALID,0.816311,
2006-04-03, 00:41:00,VALID,918.614,VALID,0,VALID,100,VALID,-0.101885,VALID,20.1871,VALID,100,VALID,0.570884,
2006-04-03, 00:42:00,VALID,918.596,VALID,0,VALID,100,VALID,-0.0169808,VALID,19.1468,VALID,100,VALID,0.664789,
2006-04-03, 00:43:00,VALID,918.578,VALID,0,VALID,100,VALID,-0.0849042,VALID,17.8693,VALID,102,VALID,0.698583,
2006-04-03, 00:44:00,VALID,918.556,VALID,0,VALID,100,VALID,-0.101885,VALID,20.924,VALID,125,VALID,0.963986,
2006-04-03, 00:45:00,VALID,918.535,VALID,0,VALID,100,VALID,-0.101885,VALID,19.8601,VALID,123,VALID,0.719638,
2006-04-03, 00:46:00,VALID,918.511,VALID,0,VALID,100,VALID,-0.118866,VALID,19.4476,VALID,123,VALID,0.776811,
2006-04-03, 00:47:00,VALID,918.48,VALID,0,VALID,100,VALID,-0.101885,VALID,20.4835,VALID,124,VALID,0.721726,
2006-04-03, 00:48:00,VALID,918.462,VALID,0,VALID,100,VALID,-0.101885,VALID,19.1699,VALID,125,VALID,0.806686,
2006-04-03, 00:49:00,VALID,918.444,VALID,0,VALID,100,VALID,-0.186789,VALID,20.1429,VALID,126,VALID,0.761347,
2006-04-03, 00:50:00,VALID,918.427,VALID,0,VALID,100,VALID,-0.152827,VALID,18.3719,VALID,127,VALID,0.708519,
2006-04-03, 00:51:00,VALID,918.401,VALID,0,VALID,100,VALID,-0.169808,VALID,20.4149,VALID,123,VALID,0.907703,
2006-04-03, 00:52:00,VALID,918.384,VALID,0,VALID,100,VALID,-0.0679233,VALID,19.8733,VALID,119,VALID,1.01012,
2006-04-03, 00:53:00,VALID,918.363,VALID,0,VALID,100,VALID,-0.0169808,VALID,19.3731,VALID,117,VALID,1.24572,
2006-04-03, 00:54:00,VALID,918.339,VALID,0,VALID,100,VALID,-0.0679233,VALID,20.4531,VALID,114,VALID,1.1686,
2006-04-03, 00:55:00,VALID,918.322,VALID,0,VALID,100,VALID,-0.0679233,VALID,19.2215,VALID,108,VALID,1.07946,
2006-04-03, 00:56:00,VALID,918.31,VALID,0,VALID,100,VALID,-0.0849042,VALID,20.1846,VALID,106,VALID,1.11701,
2006-04-03, 00:57:00,VALID,918.291,VALID,0,VALID,100,VALID,-0.101885,VALID,19.3245,VALID,109,VALID,1.04725,
2006-04-03, 00:58:00,VALID,918.261,VALID,0,VALID,100,VALID,-0.101885,VALID,19.3201,VALID,106,VALID,1.42827,
2006-04-03, 00:59:00,VALID,918.243,VALID,0,VALID,100,VALID,-0.101885,VALID,20.054,VALID,110,VALID,1.13628,
2006-04-03, 01:00:00,VALID,918.224,VALID,0,VALID,100,VALID,-0.0849042,VALID,19.4631,VALID,115,VALID,1.00707,
2006-04-03, 01:01:00,VALID,918.205,VALID,0,VALID,100,VALID,-0.0169808,VALID,19.2375,VALID,116,VALID,1.05195,
2006-04-03, 01:02:00,VALID,918.193,VALID,0,VALID,100,VALID,-0.0849042,VALID,18.3022,VALID,116,VALID,1.07467,
2006-04-03, 01:03:00,VALID,918.166,VALID,0,VALID,100,VALID,-0.0849042,VALID,19.4185,VALID,114,VALID,1.17073,
2006-04-03, 01:04:00,VALID,918.163,VALID,0,VALID,100,VALID,-0.0849042,VALID,19.3157,VALID,105,VALID,1.03144,
2006-04-03, 01:05:00,VALID,918.148,VALID,0,VALID,100,VALID,-0.0849042,VALID,20.0772,VALID,90,VALID,0.908798,
2006-04-03, 01:06:00,VALID,918.121,VALID,0,VALID,100,VALID,-0.0849042,VALID,19.7481,VALID,89,VALID,1.19401,
2006-04-03, 01:07:00,VALID,918.109,VALID,0,VALID,100,VALID,-0.0679233,VALID,19.8352,VALID,83,VALID,1.03335,
2006-04-03, 01:08:00,VALID,918.101,VALID,0,VALID,100,VALID,-0.101885,VALID,19.1388,VALID,74,VALID,1.07589,
2006-04-03, 01:09:00,VALID,918.091,VALID,0,VALID,100,VALID,-0.118866,VALID,21.0045,VALID,70,VALID,0.928961,
2006-04-03, 01:10:00,VALID,918.078,VALID,0,VALID,100,VALID,-0.101885,VALID,19.9292,VALID,70,VALID,0.892113,
2006-04-03, 01:11:00,VALID,918.066,VALID,0,VALID,100,VALID,-0.0849042,VALID,19.9121,VALID,70,VALID,0.897347,
2006-04-03, 01:12:00,VALID,918.041,VALID,0,VALID,100,VALID,-0.0849042,VALID,19.1928,VALID,70,VALID,0.878089,
2006-04-03, 01:13:00,VALID,918.022,VALID,0,VALID,100,VALID,-0.0679233,VALID,19.8721,VALID,70,VALID,0.559956,
2006-04-03, 01:14:00,VALID,917.999,VALID,0,VALID,100,VALID,-0.0679233,VALID,19.9732,VALID,70,VALID,0.573785,
2006-04-03, 01:15:00,VALID,917.961,VALID,0,VALID,100,VALID,-0.0679233,VALID,18.7565,VALID,82,VALID,0.663881,
2006-04-03, 01:16:00,VALID,917.954,VALID,0,VALID,100,VALID,-0.0679233,VALID,19.6222,VALID,113,VALID,0.930043,
2006-04-03, 01:17:00,VALID,917.92,VALID,0,VALID,100,VALID,-0.0679233,VALID,19.6111,VALID,111,VALID,0.688033,
2006-04-03, 01:18:00,VALID,917.896,VALID,0,VALID,100,VALID,-0.0849042,VALID,19.6082,VALID,109,VALID,0.473586,
2006-04-03, 01:19:00,VALID,917.854,VALID,0,VALID,100,VALID,-0.0849042,VALID,18.3966,VALID,109,VALID,0.640439,
2006-04-03, 01:20:00,VALID,917.815,VALID,0,VALID,100,VALID,-0.0509425,VALID,18.6022,VALID,107,VALID,0.731105,
2006-04-03, 01:21:00,VALID,917.789,VALID,0,VALID,100,VALID,-0.0509425,VALID,19.5133,VALID,105,VALID,0.954527,
2006-04-03, 01:22:00,VALID,917.767,VALID,0,VALID,100,VALID,-0.0169808,VALID,19.5161,VALID,108,VALID,0.973772,
2006-04-03, 01:23:00,VALID,917.732,VALID,0,VALID,100,VALID,-0.0849042,VALID,19.2408,VALID,110,VALID,0.950868,
2006-04-03, 01:24:00,VALID,917.719,VALID,0,VALID,100,VALID,-0.135847,VALID,19.3572,VALID,112,VALID,0.883194,
2006-04-03, 01:25:00,VALID,917.714,VALID,0,VALID,100,VALID,-0.0679233,VALID,20.6223,VALID,112,VALID,0.710537,
2006-04-03, 01:26:00,VALID,917.703,VALID,0,VALID,100,VALID,-0.0509425,VALID,19.0755,VALID,113,VALID,0.480283,
2006-04-03, 01:27:00,VALID,917.719,VALID,0,VALID,100,VALID,-0.101885,VALID,19.6291,VALID,113,VALID,0.438988,
2006-04-03, 01:28:00,VALID,917.713,VALID,0,VALID,100,VALID,-0.101885,VALID,20.2375,VALID,113,VALID,0.318309,
2006-04-03, 01:29:00,VALID,917.711,VALID,0,VALID,100,VALID,-0.101885,VALID,18.8804,VALID,113,VALID,0.139863,
2006-04-03, 01:30:00,VALID,917.724,VALID,0,VALID,100,VALID,-0.101885,VALID,20.3086,VALID,113,VALID,0.392987,
2006-04-03, 01:31:00,VALID,917.714,VALID,0,VALID,100,VALID,-0.101885,VALID,20.0112,VALID,113,VALID,0.520597,
2006-04-03, 01:32:00,VALID,917.718,VALID,0,VALID,100,VALID,-0.0679233,VALID,19.3945,VALID,113,VALID,0.552912,
2006-04-03, 01:33:00,VALID,917.721,VALID,0,VALID,100,VALID,-0.101885,VALID,20.104,VALID,113,VALID,0.386814,
2006-04-03, 01:34:00,VALID,917.714,VALID,0,VALID,100,VALID,-0.0849042,VALID,19.0775,VALID,113,VALID,0.274926,
2006-04-03, 01:35:00,VALID,917.71,VALID,0,VALID,100,VALID,-0.101885,VALID,19.2573,VALID,113,VALID,0.119318,
2006-04-03, 01:36:00,VALID,917.708,VALID,0,VALID,100,VALID,-0.101885,VALID,20.122,VALID,113,VALID,0.0384909,
2006-04-03, 01:37:00,VALID,917.706,VALID,0,VALID,100,VALID,-0.101885,VALID,19.4507,VALID,113,VALID,0.129573,
2006-04-03, 01:38:00,VALID,917.705,VALID,0,VALID,100,VALID,-0.101885,VALID,18.3128,VALID,113,VALID,0.2371,
2006-04-03, 01:39:00,VALID,917.683,VALID,0,VALID,100,VALID,-0.0679233,VALID,18.6352,VALID,113,VALID,0.322674,
2006-04-03, 01:40:00,VALID,917.66,VALID,0,VALID,100,VALID,0.0339617,VALID,20.0211,VALID,113,VALID,0.347656,
2006-04-03, 01:41:00,VALID,917.62,VALID,0,VALID,100,VALID,0.0169808,VALID,19.9407,VALID,113,VALID,0.451791,
2006-04-03, 01:42:00,VALID,917.608,VALID,0,VALID,100,VALID,0,VALID,19.8416,VALID,113,VALID,0.556974,
2006-04-03, 01:43:00,VALID,917.601,VALID,0,VALID,100,VALID,-0.186789,VALID,18.7098,VALID,113,VALID,0.339666,
2006-04-03, 01:44:00,VALID,917.591,VALID,0,VALID,100,VALID,-0.101885,VALID,19.1438,VALID,113,VALID,0.294212,
2006-04-03, 01:45:00,VALID,917.559,VALID,0,VALID,100,VALID,-0.101885,VALID,20.4639,VALID,113,VALID,0.412016,
2006-04-03, 01:46:00,VALID,917.542,VALID,0,VALID,100,VALID,-0.0849042,VALID,20.1415,VALID,113,VALID,0.509415,
2006-04-03, 01:47:00,VALID,917.513,VALID,0,VALID,100,VALID,-0.0849042,VALID,18.6578,VALID,113,VALID,0.598011,
2006-04-03, 01:48:00,VALID,917.493,VALID,0,VALID,100,VALID,-0.101885,VALID,18.4009,VALID,113,VALID,0.354725,
2006-04-03, 01:49:00,VALID,917.46,VALID,0,VALID,100,VALID,-0.101885,VALID,19.674,VALID,113,VALID,0.497692,
2006-04-03, 01:50:00,VALID,917.443,VALID,0,VALID,100,VALID,-0.101885,VALID,19.5333,VALID,113,VALID,0.396019,
2006-04-03, 01:51:00,VALID,917.421,VALID,0,VALID,100,VALID,-0.0679233,VALID,19.5473,VALID,113,VALID,0.158288,
2006-04-03, 01:52:00,VALID,917.411,VALID,0,VALID,100,VALID,-0.0679233,VALID,19.7402,VALID,113,VALID,0.128162,
2006-04-03, 01:53:00,VALID,917.392,VALID,0,VALID,100,VALID,-0.101885,VALID,18.7249,VALID,113,VALID,0,
2006-04-03, 01:54:00,VALID,917.379,VALID,0,VALID,100,VALID,-0.101885,VALID,19.6105,VALID,113,VALID,0.094122,
2006-04-03, 01:55:00,VALID,917.365,VALID,0,VALID,100,VALID,-0.101885,VALID,20.0254,VALID,113,VALID,0.301314,
2006-04-03, 01:56:00,VALID,917.338,VALID,0,VALID,100,VALID,-0.186789,VALID,19.7823,VALID,113,VALID,0.383345,
2006-04-03, 01:57:00,VALID,917.311,VALID,0,VALID,100,VALID,-0.0679233,VALID,19.1765,VALID,113,VALID,0.471989,
2006-04-03, 01:58:00,VALID,917.291,VALID,0,VALID,100,VALID,-0.0679233,VALID,19.9214,VALID,113,VALID,0.581659,
2006-04-03, 01:59:00,VALID,917.277,VALID,0,VALID,100,VALID,-0.101885,VALID,19.5186,VALID,113,VALID,0.528533,
2006-04-03, 02:00:00,VALID,917.252,VALID,0,VALID,100,VALID,-0.101885,VALID,19.8426,VALID,114,VALID,0.461682,
2006-04-03, 02:01:00,VALID,917.24,VALID,0,VALID,100,VALID,-0.0509425,VALID,20.4663,VALID,114,VALID,0.736579,
2006-04-03, 02:02:00,VALID,917.238,VALID,0,VALID,100,VALID,-0.0679233,VALID,19.9017,VALID,114,VALID,0.748757,
2006-04-03, 02:03:00,VALID,917.237,VALID,0,VALID,100,VALID,-0.101885,VALID,19.6215,VALID,114,VALID,0.745458,
2006-04-03, 02:04:00,VALID,917.244,VALID,0,VALID,100,VALID,-0.0679233,VALID,19.5445,VALID,115,VALID,0.62827,
2006-04-03, 02:05:00,VALID,917.236,VALID,0,VALID,100,VALID,-0.169808,VALID,19.5133,VALID,115,VALID,0.442578,
2006-04-03, 02:06:00,VALID,917.23,VALID,0,VALID,100,VALID,-0.0849042,VALID,20.4865,VALID,129,VALID,0.685865,
2006-04-03, 02:07:00,VALID,917.223,VALID,0,VALID,100,VALID,-0.118866,VALID,20.331,VALID,131,VALID,0.699855,
2006-04-03, 02:08:00,VALID,917.232,VALID,0,VALID,100,VALID,-0.186789,VALID,19.4338,VALID,133,VALID,0.847842,
2006-04-03, 02:09:00,VALID,917.227,VALID,0,VALID,100,VALID,-0.0509425,VALID,17.5032,VALID,135,VALID,0.336119,
2006-04-03, 02:10:00,VALID,917.242,VALID,0,VALID,100,VALID,-0.0679233,VALID,19.5317,VALID,141,VALID,0.121548,
2006-04-03, 02:11:00,VALID,917.243,VALID,0,VALID,100,VALID,-0.0849042,VALID,19.2807,VALID,140,VALID,0.336664,
2006-04-03, 02:12:00,VALID,917.25,VALID,0,VALID,100,VALID,-0.0509425,VALID,19.5547,VALID,154,VALID,0.360085,
2006-04-03, 02:13:00,VALID,917.25,VALID,0,VALID,100,VALID,-0.0849042,VALID,20.6357,VALID,149,VALID,0.542151,
2006-04-03, 02:14:00,VALID,917.249,VALID,0,VALID,100,VALID,-0.101885,VALID,20.6279,VALID,140,VALID,0.413672,
2006-04-03, 02:15:00,VALID,917.242,VALID,0,VALID,100,VALID,-0.0849042,VALID,19.083,VALID,138,VALID,0.807106,
2006-04-03, 02:16:00,VALID,917.235,VALID,0,VALID,100,VALID,-0.0849042,VALID,17.9672,VALID,121,VALID,0.797991,
2006-04-03, 02:17:00,VALID,917.232,VALID,0,VALID,100,VALID,-0.101885,VALID,19.2657,VALID,138,VALID,0.956836,
2006-04-03, 02:18:00,VALID,917.224,VALID,0,VALID,100,VALID,-0.101885,VALID,19.327,VALID,136,VALID,0.711483,
2006-04-03, 02:19:00,VALID,917.207,VALID,0,VALID,100,VALID,-0.101885,VALID,18.5358,VALID,128,VALID,0.714658,
2006-04-03, 02:20:00,VALID,917.193,VALID,0,VALID,100,VALID,-0.118866,VALID,19.4685,VALID,121,VALID,0.813368,
2006-04-03, 02:21:00,VALID,917.183,VALID,0,VALID,100,VALID,-0.0849042,VALID,19.1155,VALID,126,VALID,0.952083,
2006-04-03, 02:22:00,VALID,917.17,VALID,0,VALID,100,VALID,-0.0849042,VALID,19.7177,VALID,125,VALID,0.890278,
2006-04-03, 02:23:00,VALID,917.149,VALID,0,VALID,100,VALID,-0.0679233,VALID,18.3852,VALID,124,VALID,1.0823,
2006-04-03, 02:24:00,VALID,917.149,VALID,0,VALID,100,VALID,-0.101885,VALID,19.7206,VALID,114,VALID,1.03001,
2006-04-03, 02:25:00,VALID,917.144,VALID,0,VALID,100,VALID,-0.0849042,VALID,18.8408,VALID,109,VALID,1.08345,
2006-04-03, 02:26:00,VALID,917.142,VALID,0,VALID,100,VALID,-0.101885,VALID,19.1919,VALID,114,VALID,1.21665,
2006-04-03, 02:27:00,VALID,917.133,VALID,0,VALID,100,VALID,-0.101885,VALID,18.8071,VALID,120,VALID,1.14043,
2006-04-03, 02:28:00,VALID,917.149,VALID,0,VALID,100,VALID,-0.101885,VALID,19.1651,VALID,117,VALID,1.02753,
2006-04-03, 02:29:00,VALID,917.154,VALID,0,VALID,100,VALID,-0.101885,VALID,18.7582,VALID,124,VALID,0.78683,
2006-04-03, 02:30:00,VALID,917.161,VALID,0,VALID,100,VALID,-0.101885,VALID,18.7598,VALID,123,VALID,0.876243,
2006-04-03, 02:31:00,VALID,917.157,VALID,0,VALID,100,VALID,-0.101885,VALID,17.7234,VALID,109,VALID,0.712573,
2006-04-03, 02:32:00,VALID,917.161,VALID,0,VALID,100,VALID,-0.101885,VALID,19.7722,VALID,101,VALID,0.648251,
2006-04-03, 02:33:00,VALID,917.161,VALID,0,VALID,100,VALID,-0.101885,VALID,20.1893,VALID,97,VALID,0.584077,
2006-04-03, 02:34:00,VALID,917.179,VALID,0,VALID,100,VALID,-0.0849042,VALID,19.3708,VALID,97,VALID,0.46855,
2006-04-03, 02:35:00,VALID,917.185,VALID,0,VALID,100,VALID,-0.101885,VALID,18.91,VALID,97,VALID,0.533668,
2006-04-03, 02:36:00,VALID,917.192,VALID,0,VALID,100,VALID,-0.0849042,VALID,18.9193,VALID,97,VALID,0.616211,
2006-04-03, 02:37:00,VALID,917.204,VALID,0,VALID,100,VALID,0.0339617,VALID,19.6226,VALID,97,VALID,0.490916,
2006-04-03, 02:38:00,VALID,917.221,VALID,0,VALID,100,VALID,-0.101885,VALID,18.8947,VALID,97,VALID,0.620908,
2006-04-03, 02:39:00,VALID,917.222,VALID,0,VALID,100,VALID,-0.0849042,VALID,19.7783,VALID,97,VALID,0.416295,
2006-04-03, 02:40:00,VALID,917.214,VALID,0,VALID,100,VALID,-0.101885,VALID,20.4105,VALID,97,VALID,0.52798,
2006-04-03, 02:41:00,VALID,917.21,VALID,0,VALID,100,VALID,-0.0849042,VALID,19.1958,VALID,96,VALID,0.679348,
2006-04-03, 02:42:00,VALID,917.191,VALID,0,VALID,100,VALID,-0.0849042,VALID,19.8137,VALID,96,VALID,0.628162,
2006-04-03, 02:43:00,VALID,917.193,VALID,0,VALID,100,VALID,-0.0849042,VALID,18.7443,VALID,96,VALID,0.780007,
2006-04-03, 02:44:00,VALID,917.184,VALID,0,VALID,100,VALID,-0.0679233,VALID,19.0492,VALID,96,VALID,0.752539,
2006-04-03, 02:45:00,VALID,917.166,VALID,0,VALID,100,VALID,-0.0339617,VALID,18.9721,VALID,93,VALID,0.902431,
2006-04-03, 02:46:00,VALID,917.161,VALID,0,VALID,100,VALID,-0.0509425,VALID,19.7884,VALID,90,VALID,0.892933,
2006-04-03, 02:47:00,VALID,917.143,VALID,0,VALID,100,VALID,-0.152827,VALID,19.567,VALID,90,VALID,0.775694,
2006-04-03, 02:48:00,VALID,917.156,VALID,0,VALID,100,VALID,-0.101885,VALID,20.0256,VALID,88,VALID,0.89939,
2006-04-03, 02:49:00,VALID,917.159,VALID,0,VALID,100,VALID,-0.0679233,VALID,19.4397,VALID,88,VALID,0.745536,
2006-04-03, 02:50:00,VALID,917.157,VALID,0,VALID,100,VALID,-0.135847,VALID,19.2914,VALID,86,VALID,0.65067,
2006-04-03, 02:51:00,VALID,917.152,VALID,0,VALID,100,VALID,-0.0509425,VALID,18.3641,VALID,78,VALID,0.721058,
2006-04-03, 02:52:00,VALID,917.146,VALID,0,VALID,100,VALID,-0.0849042,VALID,19.3173,VALID,78,VALID,0.559304,
2006-04-03, 02:53:00,VALID,917.14,VALID,0,VALID,100,VALID,-0.0849042,VALID,18.99,VALID,76,VALID,0.749479,
2006-04-03, 02:54:00,VALID,917.142,VALID,0,VALID,100,VALID,-0.101885,VALID,19.1788,VALID,73,VALID,0.668146,
2006-04-03, 02:55:00,VALID,917.144,VALID,0,VALID,100,VALID,-0.0679233,VALID,18.6145,VALID,64,VALID,0.923264,
2006-04-03, 02:56:00,VALID,917.162,VALID,0,VALID,100,VALID,0,VALID,19.1372,VALID,63,VALID,0.702431,
2006-04-03, 02:57:00,VALID,917.164,VALID,0,VALID,100,VALID,-0.0169808,VALID,19.1905,VALID,63,VALID,0.578974,
2006-04-03, 02:58:00,VALID,917.183,VALID,0,VALID,100,VALID,-0.101885,VALID,19.104,VALID,63,VALID,0.446057,
2006-04-03, 02:59:00,VALID,917.194,VALID,0,VALID,100,VALID,-0.101885,VALID,18.8801,VALID,63,VALID,0.318537,
2006-04-03, 03:00:00,VALID,917.191,VALID,0,VALID,100,VALID,-0.0849042,VALID,18.5805,VALID,63,VALID,0.460352,
2006-04-03, 03:01:00,VALID,917.177,VALID,0,VALID,100,VALID,-0.118866,VALID,19.0141,VALID,63,VALID,0.441584,
2006-04-03, 03:02:00,VALID,917.163,VALID,0,VALID,100,VALID,-0.101885,VALID,19.0217,VALID,63,VALID,0.337209,
2006-04-03, 03:03:00,VALID,917.136,VALID,0,VALID,100,VALID,-0.101885,VALID,18.2306,VALID,63,VALID,0.400746,
2006-04-03, 03:04:00,VALID,917.116,VALID,0,VALID,100,VALID,-0.0509425,VALID,19.7062,VALID,63,VALID,0.517773,
2006-04-03, 03:05:00,VALID,917.089,VALID,0,VALID,100,VALID,-0.101885,VALID,18.4448,VALID,63,VALID,0.471413,
2006-04-03, 03:06:00,VALID,917.067,VALID,0,VALID,100,VALID,-0.101885,VALID,18.8802,VALID,63,VALID,0.513626,
2006-04-03, 03:07:00,VALID,917.05,VALID,0,VALID,100,VALID,-0.0849042,VALID,19.5146,VALID,63,VALID,0.481213,
2006-04-03, 03:08:00,VALID,917.049,VALID,0,VALID,100,VALID,-0.101885,VALID,19.5684,VALID,63,VALID,0.413707,
2006-04-03, 03:09:00,VALID,917.026,VALID,0,VALID,100,VALID,-0.101885,VALID,18.4867,VALID,63,VALID,0.494965,
2006-04-03, 03:10:00,VALID,917.008,VALID,0,VALID,100,VALID,-0.118866,VALID,19.9397,VALID,63,VALID,0.411914,
2006-04-03, 03:11:00,VALID,916.999,VALID,0,VALID,100,VALID,0,VALID,19.5511,VALID,63,VALID,0.338986,
2006-04-03, 03:12:00,VALID,916.972,VALID,0,VALID,100,VALID,-0.0169808,VALID,19.2773,VALID,63,VALID,0.262835,
2006-04-03, 03:13:00,VALID,916.967,VALID,0,VALID,100,VALID,0,VALID,18.8465,VALID,63,VALID,0.197545,
2006-04-03, 03:14:00,VALID,916.956,VALID,0,VALID,100,VALID,-0.0509425,VALID,17.8959,VALID,63,VALID,0.178735,
2006-04-03, 03:15:00,VALID,916.953,VALID,0,VALID,100,VALID,-0.0849042,VALID,18.1141,VALID,63,VALID,0.0965402,
2006-04-03, 03:16:00,VALID,916.931,VALID,0,VALID,100,VALID,0,VALID,17.9408,VALID,63,VALID,0,
2006-04-03, 03:17:00,VALID,916.922,VALID,0,VALID,100,VALID,-0.0169808,VALID,19.4856,VALID,63,VALID,0,
2006-04-03, 03:18:00,VALID,916.906,VALID,0,VALID,100,VALID,-0.0169808,VALID,19.6556,VALID,63,VALID,0,
2006-04-03, 03:19:00,VALID,916.903,VALID,0,VALID,100,VALID,-0.0339617,VALID,18.6424,VALID,63,VALID,0.0128205,
2006-04-03, 03:20:00,VALID,916.893,VALID,0,VALID,100,VALID,0,VALID,19.1169,VALID,63,VALID,0.176669,
2006-04-03, 03:21:00,VALID,916.902,VALID,0,VALID,100,VALID,-0.0339617,VALID,19.0398,VALID,63,VALID,0.115234,
2006-04-03, 03:22:00,VALID,916.912,VALID,0,VALID,100,VALID,-0.0679233,VALID,19.4048,VALID,63,VALID,0.108008,
2006-04-03, 03:23:00,VALID,916.916,VALID,0,VALID,100,VALID,0,VALID,18.7513,VALID,63,VALID,0.108285,
2006-04-03, 03:24:00,VALID,916.922,VALID,0,VALID,100,VALID,-0.0679233,VALID,18.5934,VALID,63,VALID,0.135671,
2006-04-03, 03:25:00,VALID,916.911,VALID,0,VALID,100,VALID,-0.118866,VALID,18.9921,VALID,63,VALID,0.206473,
2006-04-03, 03:26:00,VALID,916.916,VALID,0,VALID,100,VALID,-0.0849042,VALID,18.3333,VALID,63,VALID,0.269354,
2006-04-03, 03:27:00,VALID,916.927,VALID,0,VALID,100,VALID,-0.118866,VALID,19.1027,VALID,63,VALID,0.236235,
2006-04-03, 03:28:00,VALID,916.913,VALID,0,VALID,100,VALID,-0.186789,VALID,18.3331,VALID,63,VALID,0.187682,
2006-04-03, 03:29:00,VALID,916.901,VALID,0,VALID,100,VALID,-0.169808,VALID,19.095,VALID,63,VALID,0.261991,
2006-04-03, 03:30:00,VALID,916.877,VALID,0,VALID,100,VALID,-0.169808,VALID,19.1529,VALID,63,VALID,0.426525,
2006-04-03, 03:31:00,VALID,916.875,VALID,0,VALID,100,VALID,-0.101885,VALID,20.0278,VALID,63,VALID,0.426054,
2006-04-03, 03:32:00,VALID,916.849,VALID,0,VALID,100,VALID,-0.0679233,VALID,18.1462,VALID,63,VALID,0.473722,
2006-04-03, 03:33:00,VALID,916.828,VALID,0,VALID,100,VALID,-0.101885,VALID,19.0999,VALID,63,VALID,0.417969,
2006-04-03, 03:34:00,VALID,916.819,VALID,0,VALID,100,VALID,-0.0509425,VALID,18.1896,VALID,63,VALID,0.409961,
2006-04-03, 03:35:00,VALID,916.815,VALID,0,VALID,99.9964,VALID,-0.101885,VALID,19.2195,VALID,63,VALID,0.352307,
2006-04-03, 03:36:00,VALID,916.803,VALID,0,VALID,99.8655,VALID,-0.0679233,VALID,19.0633,VALID,63,VALID,0.487695,
2006-04-03, 03:37:00,VALID,916.805,VALID,0,VALID,99.6696,VALID,-0.0679233,VALID,18.5183,VALID,63,VALID,0.598028,
2006-04-03, 03:38:00,VALID,916.809,VALID,0,VALID,99.5348,VALID,-0.0679233,VALID,18.122,VALID,65,VALID,0.72311,